[Date Prev][Date Next][Thread Prev][Thread Next][Date Index][Thread Index][JAMSAT Home]

[jamsat-news:1779] jas2info #307


========================   最新情報   ==============================

        Last updated  22Feb2003  16:45(JST)   #307

====================================================================
   
1)アマチュア通信衛星情報、FOシリーズの軌道要素、テレメトリ、QSOの
   状況等をまとめてみました.
   
 FO−29の2003年2月22日(土)の15:23(JST)のパスでは
JARLのホームページにあるとうりアナログ運用でした。 今日までの観測した
テレメトリーと本日のテレメトリ最終行の分析結果を報告しておきます。

AS32181C  22Feb2003
15:23-15:38(JST)
AOS   MEL  LOS  Elev
 21    97  173  12.8
Freq. 435.805-.787Hz
(JAS-2  No.118 A 1980-2474END B 0-90)

HI HI AE C7 88 55 00 D4 CB 6E 09 1B 2E 73 6A 53 8F 8F 9D 78 A9 A7 A8 A9 A4 
HI HI AE C7 88 55 00 D4 CB 6E 09 1A 27 86 69 4C 90 90 9D 76 A9 A7 A8 A9 A4 
HI HI AE C7 88 55 00 D4 15 6F 09  B 27 5E 70 5E 8E 90 9D 8D A9 A7 A8 A9 A4 
HI HI AE C7 88 55 00 D4 73 6F 09 1B 2A 6E 7D 5E 8E 8F 9D 8E A9 A7 A8 A9 A4 
HI HI AE C7 88 55 00 D4 61 6F 09 1A 4F 40 7F 5E 8E 8F B0 8A A9 A7 A9 A9 A4 
HI HI AE C7 88 55 00 D4 15 6F 09 2A 66 33 80 5F 8E 8F B0 75 A9 A7 A7 A8 A4 
HI HI AE C7 88 55 00 D4 6A 70 09 25 7D 2C 7D 5F 8E 8F B0 86 A9 A7 A8 A9 A4 
HI HI AE C7 88 55 00 D4 6E 71 09 11 8A 2E 87 60 8E 90 B0 92 A9 A7 A8 A9 A4 
HI HI AE C7 88 55 00 D4 6E 71 09 32 89 33 87 5F 8E 8F B0 8E A9 A7 A8 A9 A4 
HI HI AE C7 88 55 00 D4 55 72 09 38 7B 3B 80 5F 8E 8F B1 81 A9 A7 A8 A8 A4 
HI HI AE C7 88 55 00 D4 97 72 09 29 6C 3C 75 5F 8E 8F B0 7D A9 A7 A8 A8 A4 
HI HI AE C7 88 55 00 D4 A7 72 09 25 53 3E 81 5F 8E 8F B0 99 A9 A7 A8 A9 A4 
HI HI AE C7 88 55 00 D4 78 72 09 60 48 3B 80 5F 8E 8F B0 99 A9 A7 A8 A8 A4 
HI HI AE C7 88 55 00 D4 14 72 09 6C 46 3B 74 5F 8F 90 B0 97 A9 A7 A8 A8 A4
HI HI AE C7 88 55 00 D4 14 71 09 68 4D 3D 6E 60 8F 90 B0 7C A9 A7 A8 A8 A4 
HI HI AE C7 88 55 00 D4 17 71 09 7F 5A 3E 76 60 8F 90 B0 87 A9 A7 A8 A8 A4 
HI HI AE C7 88 55 00 D4 18 71 09 76 67 48 77 60 8F 90 B0 72 A9 A7 A8 A8 A4 
HI HI AE C7 88 55 00 D4 9C 70 09 50 73 4E 74 60 8F 90 B0 75 A9 A7 A8 A8 A4 

AS32167C  21Feb2003
14:33-14:45(JST)
AOS   MEL  LOS  Elev
 36    89  143  12.8
Freq. 435.803-.790Hz
(JAS-2  No.118 A 1390-1980)

HI HI AE 07 88 55 00 D4 7A 74 09 08 75 3B 75 4C 91 90 B0 B8 A9 A7 A8 A8 A3 
HI HI AE 07 88 55 00 D4 7A 74 09 1B                   B0 80 A9 A7 A8 A9 A3 
HI HI AE 07 88 55 00 D4 77 75 09 17                   B0 90 A9 AZ A8 A8 A3 
HI HI AE 07 88 55 00 D4 17 76 09 16 A3 3C 7B 5F 8F 8F B0 95 A9 A7 A8 A8 A3 
HI HI AE 07 88 55 00 D4 AD 76 09 33 97 4A 6E 5F 8E 8F 9D 7A A9 A7 A8 A8 A3 
HI HI AE C7 88 55 00 D4 0F 77 09       63 71 4C 8F 90 9E 77 A9 A7 A8 A9 A3 
HI HI AE C7 88 55 00 D4 53 77 09 28       72 5F 8E 8F 9D 7B A9 A7 A8 A8 A3 
HI HI AE C7 88 55 00 D4 53 77 09 24 2F 5E 72 5F 8E 8F B0 8A A9 A7 A9 A8 A4 
HI HI AE C7 88 55 00 D4 64 77 09 61 2A 5A 79 5F 8F 8F B0 68 A9 A7 A8 A8 A4 
HI HI AE C7 88 55 00 D4 6E 77 09 61 3D 5B 53 5F 8E 8F B0 80 A9 A7 A8 A8 A4 
HI HI AE C7 88 55 00 D4 AD 76 09 6C 61       5F 8D 8E B0 75 A8 A7 A8 A8 A4 
HI HI AE C7 88 55 00 D4 1C 76 09 78 7F 53 83 5F 8D 8E B0 8D A8 A7 A8 A8 A4 
HI HI AE C7 88 55 00 D4 88 75 09 7D 8E 48 7E 5F 8E 8F BO    A8 A7 A8 A8 A4 
HI HI AE C7 88 55 00 D4 01 75 09 72 89 3D 88 5F 8E 8F B0 BE A9 A7 A8 A8 A4 
HI HI AE C7 88 55 00 D4 8F 74 09 51 77 30 86 5F 8E 90 B0 78 A9 A6 I8 A8 A4 
HI HI AE C7 88 55 00 D4 38 74 09 55 69 2F 81 5F 8E 90 B0 7D A9 A7 A8 A8 A4 
HI HI AE C7 88 55 00 D4 0D 74 09 5D 65 29 84 5F 8F 90 B0 64 A9 A7 A8 A8 A4 
HI HI AE C7 88 55 00 D4 02 74 09 5E 60 3E 7D 60 8F 90 B0 60 A9 A7 A8 A8 A4 
HI HI AE C7 88 55 00 D4 0E 74 09 5B 69 51 7E 60 8F 90 B0 8A A8 A7 A8 A8 A4 
HI HI AE 07 88 55 00 D4 0E 74 09 5B 7B 5E 7A 60 8F 97 B0 8A A8 A7 A8 A8 A4 
HI HI AE 07 88 55 00 D4 35 74 09 5B 8D 5F 70 60 8F 90 B0 8A A8 A6 A8 A8 A4 
HI HI AE C7 88 55 00 D4 70 74 09 5A 93 57 66 60 90 90 B0 87 A8 A6 A8 A8 A4 
HI HI AE C7 88 55 00 D4 

AS32167C  21Feb2003
14:33-14:45(JST)
AOS   MEL  LOS  Elev
 36    89  143  12.8
Freq. 435.803-.790Hz
(JAS-2  No.118 A 1390-1980)
HI HI AE 07 88 55 00 D4 DA 75 09 24 34 4D 79 49 98 91 9F 99 A9 A8 A9 A9 A4 
HI HI AE 07 88 55 00 D4 48 75 09 29 3C 48 79 5F    8F B0 77 A9 A8 A9 A9 A4 
HI HI AE CT 88 55 00 D4 5A                80 5F 8F 8F B0 85 A9 A7 A9 A9 A4 
HI HI AE C7 88 55 00 D4 32 75 09 36 76 33 82 60 8F 90 B0 6C A9 A7 A9 A9 A4 
HI HI AE C7 88 55 00 D4 CC 73 09 11 80 2F 83                A9 A7 A9 A9 A4 
HI HI AE C7 88 55 00 D4 6O 73 09 15 8C 31 7D 5F 8E 8F B0 8B A9 A7 A9 A9 A4 
HI HI AE C7 88 55 00 D4 5A 73 09 1F 8F 44 7E 5F 8E 8F B0 83 A9 A7 A9 A9 A4 
HI HI AE C7 88 55 00 D4 56 73 09 1B 83 4F 7E 5E 8E 8F B0 7B A9 A7 A9 A9 A4 
HI HI AE C7 88 55 00 D4 5B 73 09 18 70 5C 6E 5F 8E 8F B0 65 A9 A7 A9 A9 A4 
HI HI AE C7 88 55 00 D4 A5 73 OA 19 56 67 6D 5F 8E 8F B0 88 A9 A7 A9 A9 A4 
HI HI AE C7 88 55 00 D4 4F 73 09 09 45 68 71 5F 8E 8E B0 87 A9 A7 A9 A9 A4 
HI HI AE C7 88 55 00 D4 4E 74 09 08 5E 9E 7F 5F 8E 8F B0 8B A9 A7 A9 A9 A4 
HI HI AE C7 88 55 00 D4 4E 74 09 19 4B 43 82 60 8E 90 B0 90 A9 A7 A9 A9 A4 
HI HI AE C7 88 55 00 D4 C3 74 09 1E 57 3B 82 60 8F 90 B0 6E A9 A7 A8 A9 A4 
HI HI AE C7 88 55 00 D4 48 75 09 1E 64 36 81 60 8F 90 B0 7F A9 A7 A8 A9 A4 
HI HI AE C7 88 55 00 D4 DE 75 09 14 6C 39 80 60 8F 90 B0 74 A9 A7 A8 A9 A4 
HI HI AE C7 88 55 00 D4 77 76 09 13 6D 3D 87 60 

AS32073C  14Feb2003
15:50-15:52(JST)
AOS   MEL  LOS  Elev
 17    99  181  55.4
Freq. 435.793-.790Hz
HI HI AE 07 88 55 00 D4 CE 9C 09 30 55 3E 7 5F 8E 8E B0 8E AA A9 AA AA A5  

AS32060C  13Feb2003
16:35-16:35(JST)
AOS   MEL  LOS  Elev
  7   288  209  52.8
Freq. 435.805-.787Hz
(JAS-2  No.118 A 480-1390)
 
HI HI AE C7 88 55 00 D4 CF AC 09 29 4A 31 76 4C 90 90 B9 95 AB AA AB AB A6 
HI HI AE 07 88 55 00 D4 51 AC 09 29 4A 2D 77 5F 8F 90 9E 95 AB A9 AB AB A6 
HI HI AE C7 88 55 00 D4 BC AB 09 3E 8E 37 7A 60 8F 90 B0 7F AB AA AB AB A6 
HI HI AE C7 88 55 00 D4 18 AB 09 36 95 3D 72 60 8E 8F B0 82 AB AA AB AB A6 
HI HI AE 07 88 55 00 D4 78 AA 09 11 61 3E 7B 5F 8E 8F B0 6F AB AA AB AB A6 
HI HI AE C7 88 55 00 D4 78 AA 09 11 4B 2C 75 5F 8E 8F B0 79 AB AA AB AB A6
HI HI AE 07 88 55 00 D4 7A A9 09 15 47 28 7A 5F 8E 8F B0 80 AB A9 AB AB A7 
HI HI AE C7 88 55 00 D4 59 A9 09 08 5F 3F 7F 5F 8E 8F B0 80 AB A9 AB AC A7 
HI HI AE 07 88 55 00 D4 59 A9 09 0A 62 35 81 60 8E 90 B0 8O AB A9 AB AB A7 
HI HI AE C7 88 55 00 D4 51 A9 09 0A 62 2E 7F 5F 8E 8F B0 7E AB A9 AB AB A7 
HI HI AE C7 88 55 00 D4 6D A9 09 0D 65 3A 83 5F 8E 8F B0 81 AB AA AB AC A7 
HI HI AE C7 88 55 00 D4 9D A9 09 04 53 40 7B 5F 8E 8F B0 91 AB A9 AB AB A7 
HI HI AE C7 88 55 00 D4 F8 A9 08 05 58 35 80 5F 8E 8F B0 80 AB A9 AB AB A7 
HI HI AE C7 88 55 00 D4 F8 A9 09 05 6B 35 7F 5F 8E 8F B0 61 AB A9 AB AB A7 
HI HI AE C7 88 55 00 D4 69 AA 09 05 5F 4D 8A 5F 8F 8F B0 76 AB A9 AB AB A7 
HI HI AE C7 88 55 00 D4 F4 AA 09 0C 41 52 74 5F 8F 90 B0 79 AB A9 AB AB A7 
HI HI AE C7 88 55 00 D4 9D AB 09 0F 51 3B 7D 60 8F 90 B0 7C AB A9 AB AB A7 
HI HI AE C7 88 55 00 D4 9D AB 09 0B 73 3E 7D 60 8F 90 B0 82 AB A9 AB AB A7 
HI HI AE C7 88 55 00 D4 5B AC 09 0B 7C 4A 7E 60 8F 90 B0 7E AB A9 AB AB A7 
HI HI AE C7 88 55 00 D4 26 AD 09 1B 49 6B 86 60 90 90 B0 88 AB A9 AB AB A7 
HI HI AE C7 88 55 00 D4 F3 AD 09 14 37 6E 87 60 90 90 B0 9O AB A9 AB AB A7
 
AS32059C  13Feb2003
14:49-15:05(JST)
AOS   MEL  LOS  Elev
 29    91  153  20.0
Freq. 435.795-.788Hz
(JAS-2  No.118 A 0-480)

HI HI AE C7 88 55 00 D4    AA 09 1E 53 3D 78 5F 8E 8F B0 64 AB A9 AB AC A7
HI HI AE C7 88 55 00 D4 34 AA 09 1E 77 36 7A 5F 8F 8F B0 AE AB A9 AB AC A7 
HI HI AE C7 88 55 00 D4 F6 A9 09 08 70 4D 78 5F 8F 8F B0 4C AB A9 AB AB A7 
HI HI AE C7 88 55 00 D4 E5 A9 09 0A 4C 57 74 60 8F 8F B0 6B AB A9 AB AB A7 
HI HI AE C7 88 55 00 D4 F5 A9 09 0C 4E 42 77 60 8F 90 B0 7A AB A9 AB AB A7 
HI HI AE C7 88 55 00 D4 F8 AA 09 05 79 37 7B 5F 8F 90 B0 69 AB A9 AB AB A7 
HI HI AE C7 88 55 00 D4 29 AA 09 05 86 53 72 60 90 90 B0 7F AB A9 AB AB A7 
HI HI AE C7 88 55 00 D4 7D AA 09 07 60 78 82 60 90 90 B0 6E AB A9 AB AB A8 
HI HI AE C7 88 55 00  

AS32046C  12Feb2003
15:47-15:??(JST)
AOS   MEL  LOS  Elev
 16   100  183  60.1
Freq. 435.805-.???Hz
(JAS-2  No.117  B 1450-2390END) 
HI HI AE C7 88 55 00 D4 FE B7 09 65 72 52 7A 4A 90  7 B0 68 AA AB AA A6 
HI HI AE C7 88 55 00 D4 58 B7 09 75 5F 8F 90 BD        7 AB AA AB AA A6 
HI HI AE 07 88 55 00 D4 CA B6 09 78 6A                         AB AA A6 
HI HI AE 07 88 55 00 D4 CA B6 0B 7A 53 39 66 5F 8E 8F B0 84 AB AA AA A6 
HI HI AE 07 88 55 00 D4 5A B6 09 7E          5F 8F 8F B0 86 AB AA AA A6 

------------------------  FO-29の軌道要素 ------------------------------        
 
  ■ 軌道要素1:「jamsat−keps:1283」より         
          SB KEPS @ AMSAT  $ORB03051.N
          2Line Orbital Elements 03051.AMSAT

HR AMSAT ORBITAL ELEMENTS FOR AMATEUR SATELLITES IN NASA FORMAT
FROM WA5QGD FORT WORTH,TX February 20, 2003
SEND SUBSCRIBE/UNSUBSCRIBE TO majordomo@amsat.org ONLY
BID: ORB03051.N

 DECODE 2-LINE ELSETS WITH THE FOLLOWING KEY:
 1 AAAAAU 00  0  0 BBBBB.BBBBBBBB  .CCCCCCCC  00000-0  00000-0 0  DDDZ
 2 AAAAA EEE.EEEE FFF.FFFF GGGGGGG HHH.HHHH III.IIII JJ.JJJJJJJJKKKKKZ
 KEY: A-CATALOGNUM B-EPOCHTIME C-DECAY D-ELSETNUM E-INCLINATION F-RAAN
 G-ECCENTRICITY H-ARGPERIGEE I-MNANOM J-MNMOTION K-ORBITNUM Z-CHECKSUM

FO-29
1 24278U 96046B   03049.98530178  .00000027  00000-0  65133-4 0  5611
2 24278  98.5351 201.1475 0350170 215.3253 142.4226 13.52872814321360

 ■ 軌道要素2:「jamsat−keps:1284」より 
       SB KEPS @ AMSAT  $ORB03051.O
       Orbital Elements  03051.OSCAR

HR AMSAT ORBITAL ELEMENTS FOR OSCAR SATELLITES
FROM WA5QGD FORT WORTH,TX February 20, 2003
SEND SUBSCRIBE/UNSUBSCRIBE TO majordomo@amsat.org ONLY
BID: ORB03051.O
TO ALL RADIO AMATEURS BT

Satellite: FO-29
Catalog number: 24278
Epoch time:      03049.98530178
Element set:     561
Inclination:       98.5351 deg
RA of node:       201.1475 deg
Eccentricity:    0.0350170
Arg of perigee:   215.3253 deg
Mean anomaly:     142.4226 deg
Mean motion:   13.52872814 rev/day
Decay rate:        2.7e-07 rev/day^2
Epoch rev:           32136
Checksum:              288

-------------------  FO-29(JAS-2)のテレメトリに関する情報  ---------------------- 
 
